DMSP 5D-2 F13 DEB, 40489

Orbit data source: Space-Track

DMSP 5D-2 F13 DEB, 40489 is space debris in SSO originally from a launch on Fri, 24 Mar 1995 UTC launched from the Air Force Western Test Range (AFWTR). Debris objects in space refer to the collection of defunct objects orbiting the Earth. Examples of debris include non-operational satellites, rocket bodies, and fragments generated from explosions, collisions, or faulty payload assembly.

Loading next visibility...
Identifier
40489, 1995-015CC
Orbit
SSO
Country
Flag of USUS
Related business
Manufacturer
Unknown
Mission
Spacecraft
Bus & Motor
Unknown
Mass
Unknown
Launch date (UTC)
1995-03-24 (31 years ago)
Launch vehicle
Unknown
Launch site
Air Force Western Test Range (AFWTR)
Object type
Payload
Rocket body
Debris
Shape & HBR
Unknown shape, 0.1 m
Radar Cross Section
Small (<0.1 m²)

Expand to show TLE details & history
Last TLE update: 1 week ago

TLE from 1 week ago
0 DMSP 5D-2 F13 DEB
1 40489U 95015CC  26027.87516964  .00025342  00000-0  64376-2 0  9992
2 40489  98.7321   4.4227 0035784  17.9303 342.3143 14.50306795560939
Epoch: 2026-01-27T21:00Z
TLE epoch observation values (Epoch: 2026-01-27T21:00:14.656Z)
Latitude
-0.0001°
Longitude
-77.78865°
Altitude
703.39 km
Speed
7.517 km/s
True Right ascension
00h 17m 41s
True Declination
0° 00' 00"
Sunlit
Object was in daylight at epoch
Visualization orbit readout
Latitude
Unknown
Longitude
Unknown
Altitude
Unknown
Speed
Unknown
Apparent Right ascension
Unknown
Apparent Declination
Unknown
Sunlit
N/A
Visualization observer readout
Local Sidereal Time
17:18:12
Azimuth
Unknown
Elevation
Unknown
Doppler factor
Unknown
Orbital elements
Apogee altitude
747.172 km
Perigee altitude
696.36 km
Semi-major axis
7,099.903 km
Eccentricity
0.00358
Inclination
98.7321°
RAAN
4.4227°
Arg. of periapsis
17.9303°
True anomaly
342.18919°
Mean anomaly
342.3143°
Eccentric anomaly
342.2518°
Mean motion
3.62798 °/min
Orbital period
99.23 mins
BSTAR
0.0064376
Loading maneuver chart data...
Computing Atmospheric mass density...

Documentation

Showing up to 5 results
|